Temperature
21 20 20 20 19 19 20 21 22 22 22 22 22 22 21 20 20 20 20 20 20 20 19 19 19 19 19 19 19 19 19 19 19 19 19 19 19 19 19 19 19 19 19 19 18 18 18 18 18
21 20 20 20 19 20 21 22 22 22 22 22 22 21 20 19 19 20 20 20 20 20 19 19 19 19 19 19 19 19 19 19 19 19 19 19 19 19 19 19 18 18 18 18 18 18 18 18 18
21 20 20 19 20 20 22 22 22 23 23 23 22 21 20 20 20 20 20 20 20 20 19 19 19 19 19 19 19 19 19 19 19 19 19 19 19 19 19 18 18 18 18 18 18 18 18 18 18
21 20 20 20 21 22 22 22 23 23 23 22 22 21 20 20 20 20 20 20 20 20 19 19 19 19 19 19 19 19 19 19 19 19 19 19 19 19 18 18 18 18 18 18 18 18 18 18 18
21 21 20 20 22 23 23 23 23 22 22 22 21 20 19 20 20 20 20 20 20 20 19 19 19 19 19 19 19 19 19 19 19 19 19 19 19 18 18 18 18 18 18 18 18 18 18 18 18
21 20 20 21 22 23 23 23 23 22 22 22 21 20 19 19 20 20 20 20 20 20 19 19 19 19 19 19 19 19 19 19 19 18 18 18 18 18 18 18 18 18 18 18 18 18 18 18 18
21 20 21 21 22 23 24 24 23 22 22 22 21 19 19 19 20 20 20 20 19 19 19 19 19 19 19 18 18 18 18 18 18 18 18 18 18 18 18 18 18 18 18 18 18 18 18 18 18
22 20 21 21 22 23 24 23 23 23 22 22 22 20 19 19 19 20 20 19 19 19 19 19 19 19 18 18 18 18 18 18 18 18 18 18 18 18 18 18 18 18 18 18 18 18 18 18 18
22 20 21 22 22 23 23 23 23 23 22 22 21 21 21 20 20 19 19 19 19 19 19 19 19 19 18 18 18 18 18 18 18 18 18 18 18 18 18 18 18 18 18 18 18 18 18 18 18
22 21 23 23 23 23 23 23 23 23 22 21 21 21 20 20 20 20 19 19 19 19 19 19 19 18 18 18 18 18 18 18 18 18 18 18 18 18 17 17 17 17 17 17 17 17 18 18 18
22 22 23 24 24 24 23 23 23 22 21 21 21 21 20 20 20 20 20 20 19 19 19 19 18 18 18 18 18 18 18 18 18 18 18 18 17 17 17 17 17 17 17 17 17 17 17 17 17
22 23 24 24 24 24 23 23 22 22 22 22 22 22 21 20 20 20 20 20 19 19 19 19 19 19 18 18 18 18 18 18 18 18 17 17 17 17 17 17 17 17 17 17 17 17 17 17 17
23 24 25 25 24 24 23 23 22 22 22 22 22 21 21 21 20 20 20 20 19 19 19 19 19 19 18 18 18 18 18 18 18 18 17 17 17 17 17 17 17 17 17 17 17 17 17 17 17
24 24 24 24 24 24 23 22 22 22 22 22 21 21 21 21 20 20 20 20 19 19 19 19 19 19 18 18 18 18 18 18 18 18 17 17 17 17 17 17 17 17 17 17 17 17 17 17 17
25 24 24 24 24 24 23 22 22 22 22 21 21 21 21 20 20 20 20 20 20 19 19 19 19 19 18 18 18 18 18 18 18 17 17 17 17 17 17 17 17 17 17 17 17 17 17 17 17
24 23 23 24 24 24 23 22 22 22 22 21 21 20 20 20 20 20 20 20 20 20 19 19 19 19 18 18 18 18 17 17 17 17 17 17 17 17 17 17 17 17 17 17 17 17 17 17 17
22 23 23 24 24 23 22 22 22 21 21 20 20 20 20 20 20 20 20 20 20 20 19 19 19 19 18 18 18 18 17 17 17 17 17 17 17 17 17 17 17 17 17 17 17 17 17 17 17
23 23 23 23 24 23 22 21 21 21 21 20 20 20 20 20 20 21 20 20 20 20 19 19 19 19 18 18 18 18 17 17 17 17 17 17 17 17 17 17 17 17 17 17 16 16 16 16 16
24 24 23 24 24 23 22 21 21 21 21 20 20 20 20 20 21 20 20 20 20 20 19 19 19 19 18 18 18 18 18 17 17 17 17 17 17 17 17 17 17 16 16 16 16 16 16 16 16
24 24 23 23 24 23 22 21 21 21 21 20 20 20 20 20 20 20 20 20 20 20 19 19 19 19 18 18 18 18 17 17 17 17 17 17 17 17 16 16 16 16 16 16 16 16 16 16 16
24 23 23 23 23 22 22 22 21 21 21 21 21 21 20 21 21 20 20 20 20 20 20 19 19 19 18 18 18 18 17 17 17 17 17 17 17 16 16 16 16 16 16 16 16 16 16 16 16
24 25 24 23 22 21 22 21 21 21 20 20 20 20 20 21 21 21 20 20 20 20 20 19 19 19 18 18 18 17 17 17 17 17 17 16 16 16 16 16 16 16 16 16 16 16 16 16 16
24 24 24 22 21 21 21 21 21 20 20 20 20 20 21 21 21 21 21 20 20 20 20 19 19 19 18 18 18 17 17 17 17 17 17 16 16 16 16 16 16 16 16 16 16 16 16 16 16
24 23 22 20 20 21 21 21 21 20 21 21 21 21 21 21 21 21 21 20 20 20 20 19 19 19 18 18 18 17 17 17 17 17 17 16 16 16 16 16 16 16 16 16 15 15 15 15 16
24 22 21 22 20 20 20 21 20 21 21 21 21 21 22 22 21 21 21 21 20 20 20 19 19 19 18 18 18 17 17 17 17 17 17 16 16 16 16 16 16 16 16 15 15 15 15 15 15
23 22 21 22 21 20 20 20 21 22 22 22 22 22 22 22 22 21 21 21 21 20 20 19 19 19 18 18 18 17 17 17 17 17 17 16 16 16 16 16 15 15 15 15 15 15 15 15 15
23 21 21 20 20 20 20 20 21 21 21 21 21 22 22 22 22 22 22 21 21 20 20 20 19 19 18 18 18 17 17 17 17 17 16 16 16 16 16 16 15 15 15 15 15 15 15 15 15
23 20 19 19 20 21 22 21 21 22 21 20 20 21 22 22 22 22 22 21 21 21 20 20 19 19 19 18 18 17 17 17 17 17 16 16 16 16 16 16 15 15 15 15 15 15 15 15 15
23 21 19 17 19 20 21 21 22 21 21 20 20 21 22 22 22 22 22 21 21 21 20 20 19 19 18 18 18 17 17 17 17 16 16 16 16 16 16 16 15 15 15 15 15 15 15 15 15
24 22 19 21 20 18 19 21 22 20 20 20 21 21 22 22 22 22 22 21 21 21 20 20 19 19 18 18 18 17 17 17 17 17 16 16 16 16 16 16 16 15 15 15 15 15 14 14 14
Wind_Speed
9 7 3 1 3 4 3 3 1 2 2 2 4 5 5 3 2 2 0 4 5 5 5 7 8 8 9 10 11 12 12 12 12 12 12 12 11 11 11 11 11 10 10 10 9 9 9 9 9
6 5 1 2 4 3 3 3 2 1 3 4 5 5 5 4 3 4 2 3 5 5 5 7 9 9 9 9 10 11 11 11 11 11 11 11 11 10 10 10 10 10 9 9 9 8 8 8 8
6 3 1 3 3 2 1 1 2 3 3 2 4 4 4 2 2 2 2 5 6 5 5 6 10 9 9 9 9 10 9 9 9 9 10 9 9 9 9 9 9 9 8 8 8 8 7 7 7
3 1 2 4 2 1 2 2 2 4 3 4 4 5 4 3 2 3 6 7 7 5 4 5 9 9 9 9 9 9 8 8 8 8 8 8 8 8 8 8 8 7 7 7 7 7 6 6 6
1 2 4 3 2 1 0 1 1 3 2 3 4 5 3 4 6 8 8 7 6 4 3 4 8 8 8 8 8 8 8 7 7 8 8 8 7 7 7 7 7 7 7 6 6 6 5 6 6
2 3 4 2 3 2 1 1 2 3 4 4 5 4 2 3 6 7 7 6 5 4 3 3 6 7 7 7 8 7 7 7 7 7 7 7 7 6 6 7 7 7 7 6 6 6 5 6 6
3 3 2 1 1 2 0 1 2 3 4 3 4 5 2 2 4 7 6 6 5 4 3 2 3 5 6 6 6 6 6 6 6 6 6 6 6 6 6 6 6 6 6 6 6 6 6 6 7
3 3 2 1 0 1 0 2 2 3 4 3 4 6 4 3 6 7 7 6 4 3 2 2 2 3 3 4 5 5 4 4 4 4 5 6 5 5 5 4 5 5 6 5 5 5 5 6 6
2 3 0 2 3 2 1 2 1 4 6 3 3 3 5 10 10 8 6 4 3 2 1 1 2 2 2 2 3 3 3 3 3 3 4 3 2 2 3 3 4 4 4 5 5 5 6 6 6
3 2 4 4 4 3 2 2 3 4 4 3 5 6 10 11 10 8 6 5 4 2 1 0 1 1 1 2 2 2 1 1 2 2 1 1 1 0 1 2 4 4 4 4 5 5 5 5 4
2 3 2 1 2 4 4 2 2 5 2 4 7 10 11 11 9 8 7 5 4 3 2 1 1 1 1 1 2 1 1 1 1 1 1 1 1 0 1 1 3 3 3 2 3 3 2 1 2
1 3 2 1 2 3 4 3 3 2 3 5 8 12 12 11 9 8 7 6 3 2 2 1 1 1 1 1 1 1 1 0 1 0 0 1 1 0 1 1 1 1 1 1 1 1 1 1 1
1 1 0 2 4 4 6 4 4 2 3 7 10 11 11 10 8 6 5 4 3 3 3 2 1 1 1 1 1 1 0 0 0 0 0 1 1 1 1 1 1 1 1 1 1 1 1 1 1
1 1 2 3 3 2 6 3 3 2 5 8 9 10 9 8 7 6 5 4 4 4 3 2 2 2 2 2 1 1 0 0 0 0 1 1 2 1 0 0 0 1 1 1 1 1 1 1 1
2 4 4 2 2 2 4 3 1 4 6 7 8 8 8 6 5 6 6 6 5 5 4 3 3 2 2 2 2 1 1 1 0 0 1 1 1 1 1 1 0 1 1 1 1 0 0 1 1
3 4 2 2 2 2 4 2 2 4 8 7 7 7 7 5 5 5 5 5 5 4 4 4 3 3 3 2 2 1 1 1 0 0 0 1 1 2 1 1 1 1 1 1 1 0 0 1 1
3 1 2 2 2 3 3 3 3 4 6 6 5 6 6 5 4 4 5 5 4 5 4 4 3 3 3 2 2 1 1 1 0 0 1 1 1 2 2 1 0 1 1 0 1 0 0 1 1
3 3 2 3 3 3 3 3 3 4 5 5 5 5 5 6 6 5 5 4 3 4 4 4 3 3 3 2 2 1 2 1 1 0 1 1 1 0 1 1 0 1 1 0 0 0 0 0 1
4 3 3 3 2 3 3 3 4 5 5 5 5 5 6 6 5 4 4 4 3 3 3 4 4 3 3 2 2 1 1 0 1 1 1 1 0 0 1 1 1 0 1 1 0 0 0 0 0
4 2 2 2 1 3 1 2 3 5 6 6 6 7 7 5 4 4 4 4 4 4 4 4 3 3 3 2 2 2 1 1 0 1 1 1 1 0 0 1 0 0 0 0 1 1 1 0 1
3 5 5 3 2 3 2 3 3 3 3 3 4 5 6 7 6 5 4 5 4 4 5 5 4 4 3 3 2 2 2 2 2 2 2 2 1 1 0 1 1 1 1 0 1 1 1 1 0
4 5 6 4 3 1 2 2 6 3 3 5 5 5 6 6 6 5 5 5 5 5 4 4 4 3 3 4 4 4 2 1 1 1 1 2 2 2 1 0 1 1 0 0 1 1 1 2 1
4 3 5 4 4 2 2 1 7 1 4 7 7 8 8 8 8 7 7 6 5 4 4 4 4 3 3 3 4 4 2 2 1 1 1 1 2 2 2 1 1 0 0 0 0 0 1 1 2
5 7 7 6 5 1 2 2 6 4 7 5 7 8 8 7 7 6 5 4 4 4 4 4 4 3 2 3 3 4 3 2 1 0 1 1 1 2 2 1 1 0 0 1 1 1 1 1 1
5 6 4 4 3 5 2 2 8 6 6 7 8 8 8 8 7 7 6 6 5 5 5 4 4 3 2 3 3 3 3 3 3 2 2 1 1 1 2 1 1 1 1 1 1 1 1 1 2
4 8 7 5 5 4 1 5 7 4 3 4 5 6 6 7 7 8 8 7 6 6 5 5 5 4 3 3 3 3 3 2 2 2 2 2 2 2 2 1 1 1 1 0 1 1 1 1 1
6 3 5 7 3 0 5 6 7 0 1 2 4 5 6 7 8 8 7 6 6 6 6 6 6 4 3 3 3 2 2 2 2 2 1 1 1 1 1 1 1 1 1 0 1 0 1 0 0
5 9 6 6 5 3 5 5 5 5 4 3 5 6 6 6 6 6 6 6 6 6 5 5 5 5 3 3 3 3 2 2 2 1 1 1 1 1 1 1 0 1 1 1 1 0 0 1 0
5 5 6 5 5 6 3 7 6 8 7 7 7 6 6 6 7 7 6 6 6 5 5 5 4 4 3 3 2 2 2 1 1 1 1 1 1 1 0 0 0 0 1 1 1 1 1 1 1
4 7 8 6 4 5 4 7 5 5 6 6 6 5 5 5 5 6 6 5 5 5 5 5 5 4 4 3 3 2 1 1 1 1 1 1 1 1 1 0 0 0 1 1 1 1 1 0 0
Wind_Direction
158 150 150 134 53 43 0 332 16 48 59 46 76 90 101 98 130 152 30 125 122 129 153 160 149 142 138 135 133 132 133 134 135 138 139 139 139 140 140 140 140 141 141 140 139 137 137 135 135
151 155 162 65 70 49 338 329 45 68 137 121 75 75 75 61 61 92 100 124 121 129 142 153 145 141 139 137 136 135 134 134 137 140 141 141 143 145 146 145 145 146 146 147 148 144 143 143 141
162 182 82 65 78 146 216 322 118 104 111 88 77 61 76 80 93 127 153 133 113 117 129 150 143 140 140 140 137 136 138 139 139 141 145 146 147 150 150 151 152 151 151 153 154 154 155 154 152
154 81 53 58 38 249 193 201 139 114 72 51 85 70 63 55 120 132 123 123 118 115 127 151 143 142 143 141 141 142 144 144 146 147 148 153 156 157 157 157 159 160 161 161 161 161 164 164 164
89 77 52 29 337 328 150 186 119 102 87 60 81 88 53 19 82 107 117 122 123 116 123 146 144 146 146 143 143 143 145 148 151 154 157 158 157 160 163 166 168 171 172 171 172 171 176 179 181
58 64 62 9 340 347 6 86 102 86 93 89 86 92 54 57 93 111 116 120 121 125 125 143 146 144 147 148 150 150 152 153 155 157 162 165 167 170 174 181 184 186 186 188 188 185 190 195 198
96 77 89 314 342 341 51 75 110 122 99 95 110 99 74 84 110 118 112 109 105 106 106 106 137 148 151 152 152 152 152 157 165 167 170 174 177 182 188 194 195 196 200 204 204 202 204 209 210
127 95 52 2 144 261 102 85 98 116 103 97 104 128 164 166 125 109 97 91 92 88 89 95 106 113 125 148 156 157 157 159 168 177 182 184 188 196 204 207 208 211 214 214 218 218 220 221 221
122 71 162 215 186 214 134 105 76 73 99 84 81 125 143 131 122 111 98 85 94 104 63 62 67 86 110 141 157 161 162 153 144 157 167 167 172 205 223 220 222 224 229 233 238 238 239 234 229
107 129 223 212 188 177 157 122 122 103 101 92 83 90 116 128 133 136 139 147 160 182 201 149 120 117 128 152 136 132 151 140 119 104 116 113 109 214 232 251 247 244 243 247 251 251 247 238 230
150 196 239 250 160 143 134 115 100 129 143 169 156 143 136 138 145 155 163 171 186 194 200 197 178 156 147 136 125 112 89 88 78 80 89 100 88 324 314 306 293 287 273 283 284 277 273 250 221
165 269 240 158 103 115 134 122 90 106 179 154 149 146 146 151 163 172 174 180 179 176 205 198 178 147 159 142 110 105 86 93 83 91 123 126 102 2 334 312 304 308 299 296 295 305 306 287 237
167 298 47 110 95 101 98 92 109 102 119 120 128 138 150 162 173 177 176 173 166 181 207 204 158 150 160 130 102 96 99 131 222 249 199 174 171 241 288 318 326 304 284 260 266 286 289 278 264
238 67 78 80 85 82 96 75 88 137 130 126 136 150 163 173 177 170 167 174 182 192 201 196 171 166 146 149 153 131 159 148 318 288 241 206 198 207 182 257 315 280 257 238 215 222 225 247 251
81 59 28 20 87 120 97 39 193 172 143 142 150 159 166 178 176 180 186 188 193 195 194 189 183 161 160 171 174 161 157 139 97 268 250 218 206 196 181 175 228 269 232 166 128 116 239 251 246
47 58 24 288 122 128 119 232 221 162 149 155 161 166 172 186 190 193 191 190 189 183 183 195 191 173 180 174 160 137 136 121 105 205 247 244 228 203 169 168 237 241 158 124 127 118 319 285 266
35 102 234 269 188 146 152 219 209 152 153 159 169 175 176 185 204 205 197 191 185 183 179 178 179 174 178 167 144 125 96 94 121 162 240 259 242 210 172 174 246 188 126 135 185 46 215 252 268
217 212 225 230 216 151 170 225 196 167 171 177 179 181 186 194 209 201 191 185 178 176 169 166 171 174 154 132 105 81 60 25 16 360 271 266 257 201 157 135 333 115 108 39 20 51 31 217 256
186 191 237 256 195 152 195 221 215 187 188 195 195 197 202 207 205 185 185 179 161 163 167 175 172 166 145 132 137 144 192 279 347 329 308 306 309 101 117 69 56 87 161 199 164 134 88 17 56
181 203 249 310 83 147 196 256 220 196 203 202 200 204 206 204 195 188 187 178 175 178 185 185 183 169 170 172 163 158 150 176 214 340 354 334 343 339 77 75 72 63 158 97 118 130 138 53 93
207 190 201 195 56 58 81 324 262 223 196 202 207 204 200 201 198 194 189 187 181 189 193 194 187 179 177 161 119 95 70 38 24 7 352 339 331 332 23 68 83 70 140 190 215 170 154 157 47
242 210 168 148 107 345 99 275 280 236 232 222 217 210 206 202 193 190 190 190 193 201 189 177 175 176 175 156 149 149 151 172 244 264 317 338 351 349 349 9 79 77 80 148 236 166 166 145 173
199 114 115 108 109 63 26 165 287 259 240 237 223 214 209 199 192 195 197 196 196 188 176 170 161 168 169 165 167 161 164 190 230 316 345 339 342 340 336 330 45 58 336 250 261 112 142 163 173
128 75 61 54 67 344 247 180 278 238 222 226 217 212 206 196 190 195 194 182 183 172 165 160 157 169 158 156 160 164 168 175 169 274 312 319 330 338 340 344 17 324 260 241 210 177 174 187 167
103 97 46 7 5 256 252 206 253 252 225 210 209 207 199 190 184 189 192 186 186 178 173 167 163 172 162 154 159 171 178 185 198 217 241 268 302 308 300 314 300 277 252 243 208 179 207 201 186
170 143 158 191 219 267 293 239 256 259 243 207 196 190 181 183 186 191 199 192 188 185 178 172 174 182 172 169 181 181 184 191 207 209 212 232 250 260 278 272 281 284 286 283 188 191 234 220 217
141 159 157 131 132 261 280 282 300 233 96 154 165 168 184 187 189 192 196 188 184 184 185 179 176 179 178 181 180 175 189 197 201 198 198 225 250 275 309 298 284 292 314 351 108 103 264 37 253
134 141 106 118 146 235 289 279 254 253 219 199 188 189 194 186 184 188 188 184 184 184 177 168 172 179 177 167 172 180 183 185 185 171 206 238 263 299 8 0 335 356 8 35 79 314 300 83 12
119 105 110 115 147 157 238 270 232 219 207 197 204 200 189 191 190 183 181 177 173 162 157 162 165 160 158 164 175 164 165 174 162 175 226 239 245 252 292 269 326 4 20 50 64 10 40 66 26
158 162 150 151 193 170 178 263 282 216 204 184 194 197 187 188 179 169 166 160 158 158 159 166 165 164 172 169 165 169 165 150 156 217 249 234 236 249 245 240 57 1 28 52 64 357 52 89 19
Height
1495 1495 1497 1499 1501 1508 1510 1503 1497 1497 1497 1497 1497 1497 1499 1502 1505 1510 1505 1504 1505 1506 1507 1508 1509 1511 1512 1513 1514 1515 1517 1518 1520 1521 1523 1524 1526 1527 1528 1529 1530 1532 1533 1534 1535 1536 1537 1538 1539
1495 1496 1499 1499 1507 1519 1513 1501 1499 1497 1497 1497 1498 1499 1500 1502 1503 1504 1504 1505 1506 1507 1508 1510 1511 1512 1514 1515 1516 1517 1518 1520 1521 1523 1524 1525 1527 1528 1529 1530 1531 1532 1534 1535 1536 1536 1537 1539 1540
1496 1497 1499 1501 1509 1516 1510 1500 1498 1497 1497 1498 1499 1500 1502 1504 1504 1505 1506 1507 1508 1509 1510 1512 1513 1514 1515 1516 1518 1519 1520 1521 1523 1524 1525 1526 1527 1528 1529 1531 1532 1533 1534 1535 1536 1537 1538 1539 1540
1497 1499 1501 1506 1509 1505 1502 1499 1497 1497 1498 1499 1500 1503 1505 1507 1507 1507 1507 1508 1509 1511 1512 1513 1515 1516 1517 1518 1519 1520 1521 1522 1523 1524 1526 1527 1528 1529 1530 1531 1532 1533 1534 1535 1536 1537 1538 1539 1540
1498 1499 1505 1511 1508 1501 1498 1498 1498 1498 1499 1500 1501 1504 1507 1509 1508 1509 1509 1510 1511 1512 1514 1515 1516 1517 1518 1519 1520 1521 1522 1523 1524 1525 1526 1527 1528 1529 1530 1531 1532 1533 1534 1535 1536 1537 1538 1539 1540
1500 1500 1513 1517 1508 1501 1499 1499 1499 1500 1501 1502 1503 1506 1509 1510 1510 1511 1511 1512 1513 1514 1515 1516 1517 1519 1519 1520 1521 1522 1523 1524 1524 1525 1526 1527 1528 1529 1530 1531 1532 1533 1534 1535 1535 1536 1537 1538 1539
1501 1505 1513 1512 1510 1504 1500 1499 1500 1501 1502 1504 1504 1507 1510 1511 1512 1513 1513 1514 1515 1516 1516 1517 1518 1520 1520 1521 1522 1523 1523 1524 1525 1525 1526 1527 1528 1529 1530 1531 1532 1533 1533 1534 1535 1535 1536 1537 1539
1500 1505 1511 1512 1510 1506 1501 1500 1501 1502 1503 1505 1506 1507 1510 1512 1513 1514 1515 1515 1516 1517 1518 1519 1519 1520 1521 1522 1522 1523 1524 1524 1524 1525 1526 1527 1528 1529 1530 1530 1531 1532 1532 1533 1534 1534 1535 1536 1537
1501 1508 1514 1509 1507 1504 1500 1501 1503 1504 1504 1505 1506 1508 1509 1511 1513 1515 1515 1516 1517 1518 1519 1519 1520 1521 1521 1522 1523 1524 1524 1524 1524 1524 1526 1527 1528 1528 1529 1529 1530 1531 1531 1532 1532 1533 1534 1534 1535
1501 1510 1506 1500 1499 1499 1500 1501 1503 1505 1505 1507 1508 1509 1510 1512 1514 1515 1516 1517 1518 1518 1520 1520 1521 1521 1522 1523 1523 1524 1524 1524 1525 1525 1526 1526 1527 1528 1528 1528 1529 1529 1530 1531 1531 1532 1532 1533 1534
1500 1503 1499 1497 1497 1498 1500 1502 1503 1504 1506 1506 1507 1509 1511 1513 1514 1516 1517 1518 1519 1520 1520 1521 1521 1522 1522 1523 1524 1524 1524 1525 1525 1525 1526 1526 1527 1527 1527 1527 1527 1528 1529 1529 1530 1530 1531 1531 1532
1501 1499 1498 1498 1498 1499 1500 1502 1504 1505 1506 1506 1507 1509 1511 1513 1514 1516 1517 1518 1520 1520 1521 1521 1522 1523 1523 1524 1524 1524 1525 1525 1525 1526 1526 1526 1526 1526 1526 1526 1527 1527 1528 1528 1529 1529 1530 1530 1531
1500 1499 1497 1498 1499 1500 1501 1502 1504 1506 1506 1508 1509 1511 1513 1514 1515 1517 1518 1519 1520 1521 1522 1522 1522 1523 1524 1524 1524 1525 1525 1525 1526 1526 1526 1526 1526 1526 1526 1526 1526 1527 1527 1528 1528 1528 1529 1530 1530
1500 1499 1499 1499 1500 1501 1503 1505 1505 1507 1508 1509 1510 1512 1514 1515 1516 1518 1519 1520 1520 1521 1522 1523 1523 1523 1524 1524 1525 1525 1526 1526 1526 1526 1526 1526 1526 1525 1525 1525 1525 1526 1526 1527 1527 1527 1528 1528 1529
1499 1501 1502 1501 1501 1503 1505 1508 1507 1507 1508 1509 1511 1512 1514 1516 1517 1518 1519 1520 1521 1521 1522 1523 1523 1524 1524 1524 1525 1525 1525 1526 1526 1526 1526 1525 1525 1525 1525 1525 1525 1525 1525 1525 1526 1526 1527 1527 1527
1501 1507 1512 1504 1503 1504 1509 1516 1507 1507 1508 1509 1511 1513 1514 1516 1517 1518 1519 1520 1521 1522 1522 1523 1524 1524 1524 1524 1525 1525 1526 1526 1526 1526 1525 1525 1524 1524 1524 1524 1524 1524 1524 1525 1525 1525 1525 1525 1526
1511 1517 1515 1508 1502 1503 1508 1512 1507 1507 1508 1509 1511 1512 1514 1515 1517 1518 1519 1520 1521 1522 1522 1523 1523 1524 1524 1525 1525 1526 1526 1526 1526 1525 1525 1524 1524 1523 1523 1523 1523 1523 1523 1524 1524 1524 1524 1524 1524
1517 1516 1513 1510 1503 1504 1508 1509 1506 1507 1509 1510 1511 1512 1514 1514 1516 1517 1518 1519 1520 1521 1522 1523 1523 1524 1524 1525 1525 1526 1526 1526 1525 1525 1524 1524 1523 1522 1522 1522 1522 1522 1522 1522 1523 1523 1522 1522 1522
1504 1508 1512 1507 1501 1505 1508 1509 1507 1507 1509 1509 1510 1511 1512 1513 1515 1516 1517 1519 1520 1520 1521 1522 1522 1523 1524 1524 1525 1525 1525 1525 1525 1525 1524 1524 1523 1522 1522 1521 1521 1521 1521 1521 1521 1521 1521 1521 1521
1502 1509 1510 1505 1501 1505 1509 1509 1506 1506 1507 1508 1509 1509 1511 1512 1513 1515 1516 1517 1518 1519 1520 1521 1522 1523 1523 1524 1524 1525 1525 1525 1525 1525 1524 1524 1523 1522 1522 1521 1521 1521 1521 1520 1520 1520 1520 1520 1520
1502 1507 1507 1508 1505 1505 1510 1514 1508 1505 1506 1507 1508 1508 1509 1510 1512 1513 1515 1516 1517 1518 1519 1520 1521 1522 1522 1523 1523 1524 1524 1524 1524 1524 1524 1524 1523 1523 1522 1521 1521 1520 1520 1520 1519 1519 1519 1519 1520
1504 1496 1498 1504 1513 1520 1516 1529 1512 1506 1506 1505 1505 1506 1507 1509 1510 1512 1513 1514 1516 1517 1518 1519 1520 1521 1521 1522 1522 1523 1523 1523 1523 1523 1523 1523 1523 1522 1522 1521 1520 1520 1519 1519 1519 1518 1518 1519 1519
1496 1493 1498 1505 1515 1522 1520 1527 1519 1508 1507 1504 1502 1503 1505 1506 1508 1510 1512 1513 1515 1516 1517 1518 1519 1520 1521 1521 1521 1522 1522 1523 1523 1523 1522 1522 1522 1522 1521 1521 1519 1519 1519 1518 1518 1517 1517 1517 1517
1491 1498 1505 1513 1521 1533 1524 1528 1523 1510 1503 1499 1499 1500 1502 1504 1506 1509 1510 1512 1514 1515 1516 1517 1518 1519 1520 1520 1521 1521 1521 1522 1522 1522 1522 1521 1521 1521 1521 1520 1519 1518 1518 1517 1516 1516 1516 1516 1516
1493 1511 1530 1533 1541 1537 1523 1525 1519 1499 1494 1494 1495 1496 1498 1501 1504 1506 1508 1510 1512 1514 1515 1516 1517 1518 1519 1520 1520 1520 1521 1521 1521 1521 1521 1521 1520 1520 1520 1519 1518 1517 1517 1517 1516 1515 1515 1515 1515
1496 1505 1528 1539 1542 1535 1523 1525 1507 1493 1491 1491 1492 1494 1496 1499 1502 1504 1506 1508 1510 1512 1514 1515 1516 1517 1518 1519 1519 1520 1520 1520 1520 1520 1520 1520 1520 1519 1519 1518 1517 1517 1516 1516 1515 1514 1514 1513 1513
1496 1504 1505 1523 1530 1535 1528 1516 1501 1491 1491 1491 1492 1493 1495 1497 1500 1502 1505 1507 1509 1511 1512 1513 1515 1516 1517 1518 1518 1519 1519 1519 1519 1519 1519 1519 1519 1518 1518 1517 1516 1516 1515 1515 1514 1513 1512 1512 1512
1487 1497 1511 1523 1537 1539 1527 1520 1512 1496 1493 1491 1492 1492 1493 1496 1499 1501 1503 1505 1507 1509 1511 1512 1514 1515 1516 1517 1517 1517 1518 1518 1518 1518 1518 1518 1518 1517 1517 1516 1516 1515 1514 1514 1513 1512 1512 1511 1511
1492 1499 1509 1521 1523 1536 1537 1522 1492 1490 1488 1489 1490 1490 1492 1494 1497 1499 1501 1504 1506 1508 1510 1511 1512 1513 1515 1515 1516 1517 1517 1517 1517 1517 1517 1517 1517 1516 1516 1515 1514 1513 1513 1512 1512 1511 1511 1510 1510
1482 1491 1502 1514 1522 1526 1529 1518 1484 1484 1484 1486 1488 1489 1491 1493 1495 1498 1500 1502 1505 1506 1508 1510 1511 1512 1513 1514 1515 1515 1516 1516 1516 1516 1516 1516 1516 1515 1515 1514 1513 1512 1512 1511 1510 1510 1510 1509 1508